Preview of NWS' New Version of Forecast
This preview is not operational and should not be used for support decisions.

Regional Weather Roundup (RWR)

Issued by Gray - Portland, ME (GYX)

                            
000
ASUS41 KGYX 180105
RWRGYX
WEATHER ROUNDUP FOR MAINE AND NEW HAMPSHIRE
NATIONAL WEATHER SERVICE GRAY ME
900 PM EDT SAT AUG 17 2019

MEZ002-005-006-010-012-015-018-020-021-024-026-027-029-180200-
MAINE
  
CITY           SKY/WX    TMP DP  RH WIND       PRES   REMARKS
PORTLAND       CLOUDY    68  65  90 CALM      30.04S                  
SANFORD        CLOUDY    67  66  97 SE6       30.04R                  
BAR HARBOR     CLOUDY    63  62  97 SE5       30.07S                  
WISCASSET      CLOUDY    66  63  90 E3        30.06S                  
ROCKLAND       CLOUDY    62  61  96 CALM      30.06S FOG              
FRYEBURG       CLOUDY    68  65  90 SE5       30.04S                  
LEWISTONAUBURN LGT RAIN  65  65 100 SE3       30.05S FOG              
AUGUSTA        CLOUDY    65  64  97 SE5       30.06S                  
WATERVILLE     CLOUDY    65  63  93 CALM      30.04R                  
BANGOR         CLOUDY    66  61  84 S7        30.06S                  
GREENVILLE       N/A     62  62 100 CALM      30.04S                  
MILLINOCKET    CLOUDY    66  62  87 CALM      30.06S                  
HOULTON        CLOUDY    64  62  93 VRB5      30.04S                  
PRESQUE ISLE   MOCLDY    65  62  90 S3        30.04S                  
FRENCHVILLE    CLOUDY    63  59  87 S7        30.03S                  
CARIBOU        MOCLDY    66  60  81 S3        30.03R                  
$$

NHZ002-005-008-009-011-012-014-180200-
NEW HAMPSHIRE
  
CITY           SKY/WX    TMP DP  RH WIND       PRES   REMARKS
PORTSMOUTH     CLOUDY    67  66  97 SE7       30.01R                  
ROCHESTER      CLOUDY    68  64  87 SE6       30.03R                  
NASHUA         MOCLDY    73  70  90 SE10      30.01R                  
MANCHESTER     CLOUDY    72  67  84 SE6       29.99R                  
CONCORD        TSTM      69  66  90 SE7       30.01R FOG              
LACONIA        LGT RAIN  68  67  96 NE5       30.03R                  
PLYMOUTH       RAIN      68  66  92 E5        30.00F                  
BERLIN         LGT RAIN  68  64  87 SE3       30.04R                  
WHITEFIELD     TSTM      67  65  93 CALM      30.02S                  
JAFFREY        TSTM      68  65  90 VRB3G20   30.05R FOG              
KEENE          MOCLDY    69  67  93 CALM      29.99F                  
LEBANON        FAIR      67  63  87 CALM      29.98R                  
MT WASHINGTON  TSTM      54  54 100 W23G29      N/A  VSB 1/16         
$$

VTZ005-007-008-180200-
VERMONT
  
CITY           SKY/WX    TMP DP  RH WIND       PRES   REMARKS
ST JOHNSBURY     N/A     65  65 100 MISG      29.97S                  
MONTPELIER     FAIR      65  64  97 SW3       30.01F                  
BURLINGTON     MOCLDY    69  66  90 SE7       29.95R                  
$$

MAZ007-012-024-CTZ003-RIZ002-NYZ038-NYZ072-180200-
SOUTHERN NEW ENGLAND AND NY
  
CITY           SKY/WX    TMP DP  RH WIND       PRES   REMARKS
BOSTON         MOCLDY    68  64  87 SE9       30.01R                  
WORCESTER      FAIR      72  70  93 S6        30.04R                  
NANTUCKET      FAIR      68  66  93 E7        30.00R                  
PROVIDENCE     LGT RAIN  74  72  93 S3        30.01R                  
HARTFORD       MOCLDY    77  71  82 S8        29.97R                  
ALBANY         MOCLDY    70  66  87 SW8       30.00R                  
NEW YORK CITY  MOCLDY    78  71  79 S7        29.97R                  
$$

ANZ081-ANZ082-ANZ150-NHZ014-MEZ023>029-180200-
COASTAL MARINE OBSERVATIONS
  
STATION/POSITION TIME  TEMP    WIND        PRES    WAVE
                       AIR SEA DIR/SP/G            HT/PER
                 (UTC) (F)     (DEG/KT/KT) (MB)    (FT/S)
MATINICUS ROCK   0050   61                 1017.2F
ISLE OF SHOALS   0000   66      80/  3/  3 1016.2R
JEFFREYS LEDGE   0038      67                N/A     3/ 7
CASHES LEDGE BUO 0050   65 65  120/  8/ 10 1018.0R   3/ 7
GEORGES BANK BUO 0050   72 70   90/ 10/ 12 1017.2F   3/ 7
$$

.............KEY..............
   WCI - WIND CHILL
   TC  - TEMPERATURE IN CELSIUS
   VSB - VISIBILITY IN MILES
   HX  - HEAT INDEX
   FAIR- INDICATES FEW OR NO CLOUDS BELOW 12,000 FT, WITH NO 
         SIGNIFICANT WEATHER AND/OR OBSTRUCTIONS TO VISIBILITY.